SCP
0 0 0 0 0 0 0 0 0 0 0 0 0 0 0 0 0 0 0 0 0 0 0 0 0 0 0 0 0 0 0 0 0 0 0 0 0 0 0 0 0 0 0
0 0 0 0 0 0 0 0 0 0 0 0 0 0 0 0 0 0 0 0 0 0 0 0 0 0 0 0 0 0 0 0 0 0 0 0 0 0 0 0 0 0 0
0 0 0 0 0 0 0 0 0 0 0 0 0 0 0 0 0 0 0 0 0 0 0 0 0 0 0 0 0 0 0 0 0 0 0 0 0 0 0 0 0 0 0
0 0 0 0 0 0 0 0 0 0 0 0 0 0 0 0 0 0 0 0 0 0 0 0 0 0 0 0 0 0 0 0 0 0 0 0 0 0 0 0 0 0 0
0 0 0 0 0 0 0 0 0 0 0 0 0 0 0 0 0 0 0 0 0 0 0 0 0 0 0 0 0 0 0 0 0 0 0 0 0 0 0 0 0 0 0
0 0 0 0 0 0 0 0 0 0 0 0 0 0 0 0 0 0 0 0 0 0 0 0 0 0 0 0 0 0 0 0 0 0 0 0 0 0 0 0 0 0 0
0 0 0 0 0 0 0 0 0 0 0 0 0 0 0 0 0 0 0 0 0 0 0 0 0 0 0 0 0 0 0 0 0 0 0 0 0 0 0 0 0 0 0
0 0 0 0 0 0 0 0 0 0 0 0 0 0 0 0 0 0 0 0 0 0 0 0 0 0 0 0 0 0 0 0 0 0 0 0 0 0 0 0 0 0 0
0 0 0 0 0 0 0 0 0 0 0 0 0 0 0 0 0 0 0 0 0 0 0 0 0 0 0 0 0 0 0 0 0 0 0 0 0 0 0 0 0 0 0
0 0 0 0 0 0 0 0 0 0 0 0 0 0 0 0 0 0 0 0 0 0 0 0 0 0 0 0 0 0 0 0 0 0 0 0 0 0 0 0 0 0 0
0 0 0 0 0 0 0 0 0 0 0 0 0 0 0 0 0 0 0 0 0 0 0 0 0 0 0 0 0 0 0 0 0 0 0 0 0 0 0 0 0 0 0
0 0 0 0 0 0 0 0 0 0 0 0 0 0 0 0 0 0 0 0 0 0 0 0 0 0 0 0 0 0 0 0 0 0 0 0 0 0 0 0 0 0 0
0 0 0 0 0 0 0 0 0 0 0 0 0 0 0 0 0 0 0 0 0 0 0 0 0 0 0 0 0 0 0 0 0 0 0 0 0 0 0 0 0 0 0
1 1 1 0 0 0 0 0 0 0 0 0 0 0 0 0 0 0 0 0 0 0 0 0 0 0 0 0 0 0 0 0 0 0 0 0 0 0 0 0 0 0 0
1 1 1 1 0 0 0 0 0 0 0 0 0 0 0 0 0 0 0 0 0 0 0 0 0 0 0 0 0 0 0 0 0 0 0 0 0 0 0 0 0 0 0
1 1 1 1 0 0 0 0 0 0 0 0 0 0 0 0 0 0 0 0 0 0 0 0 0 0 0 0 0 0 0 0 0 0 0 0 0 0 0 0 0 0 0
1 1 1 1 1 0 0 0 0 0 0 0 0 0 0 0 0 0 0 0 0 0 0 0 0 0 0 0 0 0 0 0 0 0 0 0 0 0 0 0 0 0 0
1 1 1 1 1 1 1 0 0 0 0 0 0 0 0 0 0 0 0 0 0 0 0 0 0 0 0 0 0 0 0 0 0 0 0 0 0 0 0 0 0 0 0
1 1 1 1 1 1 1 0 0 0 0 0 0 0 0 0 0 0 0 0 0 0 0 0 0 0 0 0 0 0 0 0 0 0 0 0 0 0 0 0 0 0 0
1 1 1 1 1 1 1 0 0 0 0 0 0 0 0 0 0 0 0 0 0 0 0 0 0 0 0 0 0 0 0 0 0 0 0 0 0 0 0 0 0 0 0
0 0 0 0 0 0 0 0 0 0 0 0 0 0 0 0 0 0 0 0 0 0 0 0 0 0 0 0 0 0 0 0 0 0 0 0 0 0 0 0 0 0 0
0 0 0 0 0 0 0 0 0 0 0 0 0 0 0 0 0 0 0 0 0 0 0 0 0 0 0 0 0 0 0 0 0 0 0 0 0 0 0 0 0 0 0
0 0 0 0 0 0 0 0 0 0 0 0 0 0 0 0 0 0 0 0 0 0 0 0 0 0 0 0 0 0 0 0 0 0 0 0 0 0 0 0 0 0 0
0 0 0 0 0 0 0 0 0 0 0 0 0 0 0 0 0 0 0 0 0 0 0 0 0 0 0 0 0 0 0 0 0 0 0 0 0 0 0 0 0 0 0
1 1 1 0 0 0 0 0 0 0 0 0 0 0 0 0 0 0 0 0 0 0 0 0 0 0 0 0 0 0 0 0 0 0 0 0 0 0 0 0 0 0 0
1 1 1 1 0 0 0 0 0 0 0 0 0 0 0 0 0 0 0 0 0 0 0 0 0 0 0 0 0 0 0 0 0 0 0 0 0 0 0 0 0 0 0
Wind_Speed
2 2 1 1 1 1 2 1 0 1 2 2 1 1 1 1 1 0 2 5 3 3 3 3 4 5 5 5 4 5 5 6 6 6 5 5 5 5 5 5 5 5 4
2 2 2 2 1 1 0 1 1 1 1 1 1 1 1 1 0 1 1 4 4 3 3 3 4 5 5 5 5 5 5 5 6 6 5 5 5 5 5 4 5 5 4
2 2 2 2 1 1 2 1 1 1 1 1 1 1 1 1 0 1 1 1 4 5 4 3 3 4 4 5 6 6 6 6 6 6 5 5 5 5 4 4 4 5 4
3 3 2 2 2 2 2 1 1 1 1 1 1 1 1 1 1 1 1 1 1 2 5 4 3 3 3 4 5 5 5 5 5 5 5 5 5 5 5 5 5 5 5
3 3 2 1 2 2 2 2 1 1 1 1 2 1 1 1 1 1 1 1 1 1 2 6 6 4 3 3 4 5 5 5 5 5 5 5 5 5 5 5 5 5 5
4 4 3 3 3 2 2 1 1 1 1 2 2 1 1 1 1 1 2 1 1 2 2 2 4 6 6 4 4 5 5 5 4 4 4 5 5 5 5 5 5 5 5
3 3 3 3 3 2 2 2 2 3 2 1 2 2 3 3 2 1 2 1 2 2 1 2 1 2 5 8 6 5 5 5 4 4 4 4 5 5 6 6 6 5 5
4 4 4 3 3 2 3 3 2 2 1 2 2 2 2 4 4 3 2 2 2 2 2 2 2 2 2 3 7 7 5 5 3 3 3 4 4 5 6 6 6 6 6
4 3 4 3 3 4 3 3 3 4 2 2 2 3 2 1 1 3 3 2 2 2 2 2 2 2 2 2 4 7 5 4 3 3 3 3 4 5 5 6 6 7 7
4 4 4 4 4 3 3 4 4 3 3 3 2 2 3 3 3 1 3 3 3 2 2 2 2 2 2 2 3 5 5 3 3 3 3 3 3 4 5 6 7 7 7
4 4 4 4 4 4 3 3 3 4 4 3 2 2 2 3 4 3 2 2 3 3 3 3 2 2 2 2 2 5 5 4 3 3 2 3 3 4 5 6 6 6 7
3 4 4 3 4 3 3 4 4 5 4 3 3 3 3 3 3 3 3 3 2 3 3 2 3 3 3 3 3 7 5 4 3 2 2 2 3 4 5 5 6 6 7
3 3 3 3 3 3 4 4 4 4 4 4 4 3 3 3 3 3 4 3 3 2 3 3 3 3 3 2 4 6 5 4 3 3 3 3 3 4 4 4 5 6 6
2 3 3 4 4 4 4 4 4 4 4 4 4 4 4 4 3 4 4 3 3 3 3 3 2 3 2 3 4 6 5 6 4 3 4 4 4 4 3 4 4 4 5
3 3 4 4 3 3 3 4 3 4 4 4 4 5 5 3 4 4 4 4 4 3 2 4 3 3 2 2 4 4 3 5 5 4 4 4 4 4 4 4 4 3 4
2 3 3 3 3 3 4 4 3 3 4 4 4 4 4 4 3 3 4 4 4 4 3 1 2 2 2 2 3 3 2 6 6 5 5 5 5 5 5 5 4 4 4
3 3 3 3 3 3 3 3 3 3 4 4 4 4 5 5 3 3 3 4 4 4 4 2 2 2 3 3 3 3 4 5 5 7 6 5 5 5 5 5 5 5 5
3 3 3 3 3 3 3 3 4 4 4 4 4 4 4 3 4 4 3 4 3 3 4 3 2 2 3 4 3 4 4 4 4 7 8 7 6 6 5 6 6 6 5
3 3 3 3 3 3 3 3 4 4 4 4 4 4 4 4 4 3 4 4 3 3 3 3 3 1 2 2 3 4 5 3 4 5 8 8 7 7 6 6 6 6 6
3 4 4 4 4 4 4 4 4 4 4 4 4 4 4 4 4 4 4 4 4 4 3 4 3 3 3 3 3 4 4 4 4 4 4 5 7 8 8 8 7 7 7
3 3 4 4 4 4 3 3 4 4 4 4 4 4 4 2 2 3 4 3 4 4 4 4 4 3 3 3 3 4 4 4 4 4 4 4 5 6 7 9 10 9 8
2 2 3 4 4 2 2 1 4 4 4 4 4 4 4 4 3 4 4 4 4 5 5 4 4 3 3 3 3 4 3 4 4 3 4 4 4 4 5 5 6 9 9
2 2 3 2 2 1 3 2 2 4 5 4 4 4 4 2 4 4 5 7 6 6 6 6 5 4 3 3 4 5 4 4 4 2 4 5 4 5 5 3 7 8 9
2 2 2 2 2 2 3 2 3 5 4 4 5 5 4 4 3 3 4 5 5 5 6 6 5 5 4 3 4 5 5 5 5 4 4 5 4 5 4 3 8 8 9
2 2 2 2 2 1 2 2 3 4 4 5 5 5 5 5 2 3 5 5 5 4 4 5 4 4 4 4 4 5 5 5 5 3 4 5 4 4 4 4 6 10 10
2 3 2 2 2 2 2 2 3 4 4 4 4 5 4 4 3 3 5 5 5 4 4 4 5 6 7 6 6 7 6 6 5 3 2 4 4 4 4 3 3 5 7
Wind_Direction
190 178 188 201 215 169 175 206 220 171 240 229 244 267 310 330 325 326 124 133 159 189 200 203 200 198 194 191 186 182 180 180 180 180 180 178 179 178 178 174 174 181 190
192 201 196 194 196 200 153 201 188 217 249 257 251 273 287 283 255 261 204 147 162 184 202 207 207 202 194 191 187 185 184 183 183 182 178 180 179 172 169 174 178 181 186
199 215 204 201 190 175 173 199 188 212 211 217 231 250 235 259 229 251 244 194 165 167 174 191 205 202 195 193 190 190 186 181 180 182 184 183 180 173 169 175 184 187 194
212 224 217 200 203 202 181 187 211 216 212 236 237 248 232 185 197 206 213 209 199 160 155 155 173 185 186 184 182 182 176 172 176 182 182 179 180 179 174 181 187 192 198
211 220 218 202 213 209 202 218 164 229 217 251 239 228 247 228 198 191 231 229 177 198 162 152 168 171 173 175 175 171 168 172 175 176 177 179 183 185 184 192 194 198 204
213 221 210 202 210 203 204 210 197 221 235 251 267 232 231 231 229 189 228 212 198 206 192 177 179 166 167 168 171 175 180 181 176 176 182 188 193 192 191 198 200 203 210
211 225 228 193 217 208 217 208 217 202 218 242 253 228 199 197 203 205 228 239 195 203 207 206 210 193 166 172 176 182 189 185 181 184 191 195 200 199 199 202 201 206 212
213 214 222 219 212 211 206 206 216 240 217 213 268 266 235 188 194 190 194 211 216 200 207 199 191 205 222 172 149 172 174 174 178 188 187 196 203 204 203 206 208 210 215
206 220 217 225 217 226 207 211 208 224 240 220 255 284 283 279 198 168 181 195 206 206 208 194 193 180 202 187 157 154 161 166 178 192 188 192 199 205 207 210 212 214 219
207 209 217 222 230 233 209 219 211 228 236 239 212 254 296 329 295 219 185 185 197 200 199 206 187 177 191 189 132 134 148 161 179 184 181 194 202 206 209 216 223 223 225
204 211 209 218 224 234 226 237 214 235 234 244 248 239 234 232 255 271 248 212 202 200 187 193 188 184 176 189 170 125 140 156 171 177 189 212 223 219 219 221 227 228 228
199 207 209 218 224 230 219 223 222 221 238 243 253 252 252 252 250 254 259 248 229 204 194 195 200 187 182 188 144 119 139 155 170 180 196 219 230 235 231 227 232 235 235
198 195 205 211 222 224 224 226 220 229 227 226 237 247 258 262 269 270 272 270 259 222 192 209 190 184 186 187 145 144 158 164 178 195 209 224 229 232 230 230 235 241 231
210 184 196 206 215 218 222 216 225 221 220 226 238 251 257 256 261 260 269 275 261 229 198 194 185 187 196 199 137 188 171 170 187 202 212 220 227 229 227 232 237 230 215
204 187 194 201 209 211 218 222 227 229 223 230 233 231 246 253 246 251 259 265 272 268 223 181 197 178 204 194 151 207 196 166 190 212 220 220 220 223 222 224 225 210 195
209 200 200 201 207 210 212 222 229 221 226 234 243 246 251 257 254 250 250 254 258 271 272 202 191 171 178 205 178 220 207 165 193 212 221 223 221 220 222 219 219 215 207
202 205 207 209 207 209 211 217 236 231 232 238 244 241 244 257 256 255 250 250 249 257 258 247 194 151 182 230 184 215 205 212 195 194 209 216 218 219 223 219 218 218 216
210 200 202 206 210 210 205 214 231 234 237 243 246 246 247 241 242 253 253 253 251 257 258 247 226 192 200 213 210 226 219 223 223 177 195 207 214 218 219 222 221 222 223
212 210 202 204 209 217 219 224 229 236 243 246 250 250 249 245 247 244 247 248 246 240 246 243 231 209 215 218 218 227 225 231 238 182 190 203 212 217 220 224 225 225 225
218 219 210 211 215 217 223 230 231 237 247 250 251 253 251 248 246 245 240 245 250 250 242 246 232 212 211 208 229 228 219 211 235 215 202 205 201 208 217 219 220 220 220
225 226 222 217 219 217 217 230 236 235 242 249 254 254 248 259 292 276 270 251 247 250 244 243 237 226 221 213 229 238 240 231 221 233 222 216 205 214 208 212 215 216 215
232 224 235 228 226 225 115 209 263 245 243 244 248 249 236 221 215 223 249 262 270 257 259 258 248 238 233 233 244 252 249 247 239 218 243 241 231 230 228 222 191 194 204
231 234 240 236 233 162 124 174 263 256 245 245 246 247 249 225 235 232 215 217 227 238 254 269 268 264 247 240 251 248 251 261 268 246 248 248 236 242 240 205 167 186 202
243 249 249 231 225 175 146 179 242 239 243 244 243 244 247 244 247 259 248 235 230 219 225 237 258 264 264 253 245 258 260 248 244 238 239 257 247 246 247 216 172 188 199
252 246 240 226 229 193 155 181 244 239 237 239 237 235 242 243 193 255 249 246 244 240 217 227 258 275 305 292 272 254 247 249 249 230 219 253 261 257 243 231 187 188 197
249 245 223 220 227 226 156 176 242 250 246 246 235 226 221 239 199 229 246 247 247 254 260 227 226 233 238 228 225 245 253 257 259 251 197 247 259 264 255 237 221 198 203